Overview Statistics Trail Chart Weather Telemetry Raw packets
 

This is the latest recevied weather packets stored in our database for station/object KC3BHK-2. If no packets are shown the sender has not sent any weather packets the latest 10 day(s).

<< 6 7 8 9 10 11 12 >>
Time Temp. Humidity Pressure Rain* Wind** Luminosity Snow
1788546203 32.78° C - - 0 mm 0.89 m/s, 271° - -
1788545895 33.33° C - - 0 mm 3.13 m/s, 257° - -
1788545590 33.89° C - - 0 mm 1.79 m/s, 266° - -
1788545286 33.89° C - - 0 mm 0.89 m/s, 293° - -
1788544981 33.89° C - - 0 mm 2.24 m/s, 298° - -
1788544676 33.89° C - - 0 mm 1.34 m/s, 283° - -
1788544371 33.89° C - - 0 mm 2.68 m/s, 273° - -
1788544060 33.33° C - - 0 mm 0.45 m/s, 347° - -
1788543755 32.78° C - - 0 mm 1.79 m/s, 280° - -
1788543450 31.11° C - - 0 mm 0.45 m/s, 354° - -
1788543146 31.11° C - - 0 mm 1.79 m/s, 314° - -
1788542841 31.11° C - - 0 mm 3.13 m/s, 253° - -
1788542536 31.67° C - - 0 mm 1.79 m/s, 266° - -
1788542228 32.22° C - - 0 mm 2.68 m/s, 278° - -
1788541923 32.22° C - - 0 mm 0.45 m/s, 352° - -
1788541618 32.22° C - - 0 mm 2.24 m/s, 276° - -
1788541343 32.22° C - - 0 mm 1.79 m/s, 309° - -
1788541009 32.22° C - - 0 mm 2.68 m/s, 302° - -
1788540704 31.67° C - - 0 mm 0 m/s - -
1788540396 31.11° C - - 0 mm 0.45 m/s, 262° - -
1788540091 31.67° C - - 0 mm 2.24 m/s, 293° - -
1788539786 31.67° C - - 0 mm 1.34 m/s, 14° - -
1788539482 31.67° C - - 0 mm 3.58 m/s, 267° - -
1788539177 31.11° C - - 0 mm 0.45 m/s, 18° - -
1788538872 31.11° C - - 0 mm 0.45 m/s, 219° - -

* Rain latest hour (hover to see other rain measurements)
** Current wind speed in m/s (hover to see current wind gust speed)